weather.gov     
National Weather Service

Regional Weather Roundup
NWS Homepage
This page is being discontinued on March 12, 2014.
The same data is available at this site. Please update your bookmarks.
Thank you, and we apologize for the inconvenience.
Please send an email to SR-SRH.Webmaster@noaa.gov with any concerns.


Current Version
Previous Version:    01  02  03  04  05  06  07  08  09  10  11  12  13  14  15  16  17  18  19  20  21  22  23  24  25  26  27  28  29  30  
   31  32  33  34  35  36  37  38  39  40  41  42  43  44  45  46  47  48  49  50  51  52  53  54  55  56  57  58  59  60  
[Printable]
834
ASUS43 KJKL 252019
RWRJKL

EAST KENTUCKY HOURLY WEATHER ROUNDUP
NATIONAL WEATHER SERVICE JACKSON KY
400 PM EDT SAT OCT 25 2014

NOTE: "FAIR" INDICATES FEW OR NO CLOUDS BELOW 12,000 FEET WITH
NO SIGNIFICANT WEATHER AND/OR OBSTRUCTIONS TO VISIBILITY.

* THESE REPORTS ARE NOT UNDER NWS QUALITY CONTROL AND MAY NOT
  REPORT WEATHER SUCH AS PRECIPITATION AND FOG.

KYZ079-080-083-085-087-088-110-112-115-119-120-252100
...EASTERN KENTUCKY...

CITY           SKY/WX    TMP DP  RH WIND       PRES   REMARKS
JACKSON        MOSUNNY   69  51  52 VRB6      29.99F
LONDON         MOSUNNY   69  52  54 VRB7      30.00F
SOMERSET*      MOSUNNY   68  54  60 W6        30.01F
MONTICELLO*    MOSUNNY   71  56  59 SW8       30.01F
WILLIAMSBURG*  MOSUNNY   68  54  60 MISG      30.01F
MIDDLESBORO*   CLOUDY    68  49  51 CALM      30.02S
HARLAN APT*    CLOUDY    64  45  48 W5        30.02S
BLACK MTN*       N/A     55  45  67 CALM        N/A
PIKEVILLE APT* CLOUDY    64  48  55 SW3       29.98F
BIG SANDY*     CLOUDY    65  50  56 SW6       29.98F HAZE
MOREHEAD APT*  CLOUDY    68  55  64 SW8G14    29.98S
ASHLAND*       MOSUNNY   70  52  52 W8        29.90F
$$

KYZ035-036-041-042-044-050-067-078-099-252100
...CENTRAL KENTUCKY...

CITY           SKY/WX    TMP DP  RH WIND       PRES   REMARKS
MT STERLING*   CLOUDY    68  55  64 W8        29.98S
FLEMING/MASON* SUNNY     68  57  68 SW10G17   29.95F
DANVILLE*      PTSUNNY   72  55  56 W8        29.99S
RICHMOND*      MOSUNNY   70  55  60 W9        29.98S
LEXINGTON      MOSUNNY   73  58  59 SW12      29.95F
FRANKFORT      SUNNY     72  59  63 W9        29.95F
$$

KYZ091>093-OHZ055-061-077-WVZ005-015-034-035-042-252100
...SOUTHERN OHIO/WEST VIRGINIA...

CITY           SKY/WX    TMP DP  RH WIND       PRES   REMARKS
COVINGTON      MOSUNNY   74  55  51 W12       29.92F
COLUMBUS       SUNNY     72  53  51 W16       29.84F
DAYTON         MOSUNNY   75  53  46 W20       29.89F
WILMINGTON     SUNNY     69  54  58 W17       29.89F
HUNTINGTON     CLOUDY    66  51  58 SW9       29.93F
CHARLESTON     PTSUNNY   67  48  50 SW12      29.93F
PINEVILLE*     CLOUDY    65  50  58 MISG      30.03F
BECKLEY        CLOUDY    62  42  47 NW10      29.98F
BLUEFIELD      CLOUDY    64  40  41 W13       30.00F
$$

VAZ002-007-008-TNZ017-027-036-066-071-252100
...SOUTHWEST VIRGINIA/EAST TENNESSEE...

CITY           SKY/WX    TMP DP  RH WIND       PRES   REMARKS
WISE*          CLOUDY    64  43  45 W8        30.04S
JONESVILLE*    CLEAR     68  45  42 SW6       30.03F
ABINGDON*      MOSUNNY   67  48  50 W7        30.02S
BRISTOL        MOSUNNY   67  47  48 W7        30.01F
KNOXVILLE      MOSUNNY   69  48  47 W5        30.02F
OAK RIDGE      PTSUNNY   72  49  44 VRB5      30.03F
CROSSVILLE     CLOUDY    67  54  63 NW5       30.06S
NASHVILLE      MOSUNNY   80  61  52 W7        30.00F
$$

...KEY TO REMARKS...
VSB - VISIBILITY IN MILES
WCI - WIND CHILL INDEX
HX  - HEAT INDEX

$$




U.S. Dept. of Commerce
NOAA National Weather Service
1325 East West Highway
Silver Spring, MD 20910
E-mail: w-nws.webmaster@noaa.gov
Page last modified: May 16, 2007
NATIONAL WEATHER SERVICE: for Safety, for Work, for Fun - FOR LIFE